DW6119 Weather Reports


Display with metric or nautical units.
time (UTC)temp
F
wind
direction
speed
MPH
gust
MPH
rain 1hr
in
rain 24hr
in
rain mn
in
humidity
%
barometer
mb
20240617063903 72 45 1.0 2.0 0.00 0.00 0.00 62 1014.7
20240617063403 71 263 0.0 1.0 0.00 0.00 0.00 63 1014.7
20240617062904 71 311 0.0 1.0 0.00 0.00 0.00 64 1014.9
20240617062403 71 214 0.0 2.0 0.00 0.00 0.00 64 1014.7
20240617061404 70 22 0.0 2.0 0.00 0.00 0.00 65 1014.6
20240617060904 70 288 0.0 2.0 0.00 0.00 0.00 64 1014.6
20240617060404 69 113 0.0 2.0 0.00 0.00 0.00 67 1014.6
20240617055902 69 217 0.0 2.0 0.00 0.00 0.00 67 1014.2
20240617055403 70 218 0.0 2.0 0.00 0.00 0.00 66 1014.5
20240617054903 71 24 0.0 1.0 0.00 0.00 0.00 62 1014.2
20240617054404 71 20 0.0 1.0 0.00 0.00 0.00 63 1014.2
20240617053903 71 266 0.0 1.0 0.00 0.00 0.00 63 1014.4
20240617053403 70 26 0.0 1.0 0.00 0.00 0.00 64 1014.2
20240617052903 69 26 0.0 1.0 0.00 0.00 0.00 67 1014.4
20240617052403 69 28 0.0 1.0 0.00 0.00 0.00 67 1014.2
20240617051904 69 13 0.0 1.0 0.00 0.00 0.00 67 1014.2
20240617051404 67 217 0.0 1.0 0.00 0.00 0.00 70 1014.2
20240617050403 67 40 1.0 1.0 0.00 0.00 0.00 71 1014.2
20240617045903 67 140 0.0 0.0 0.00 0.00 0.00 72 1014.2
20240617045404 67 145 0.0 0.0 0.00 0.00 0.00 71 1014.2
20240617044903 67 159 0.0 0.0 0.00 0.00 0.00 70 1014.0
20240617044402 66 160 0.0 0.0 0.00 0.00 0.00 71 1014.0
20240617043903 65 186 0.0 0.0 0.00 0.00 0.00 73 1013.9
20240617043403 65 186 0.0 0.0 0.00 0.00 0.00 74 1013.9
20240617042903 64 177 0.0 1.0 0.00 0.00 0.00 75 1013.9
20240617042403 63 177 0.0 1.0 0.00 0.00 0.00 78 1013.8
20240617041403 62 174 0.0 1.0 0.00 0.00 0.00 80 1013.5
20240617035903 62 67 0.0 1.0 0.00 0.00 0.00 82 1013.9
20240617035403 62 56 0.0 1.0 0.00 0.00 0.00 82 1013.9
20240617034903 61 54 0.0 1.0 0.00 0.00 0.00 83 1013.6
20240617034403 62 30 0.0 1.0 0.00 0.00 0.00 83 1013.5
20240617033903 62 30 0.0 1.0 0.00 0.00 0.00 82 1013.5
20240617033405 61 29 0.0 1.0 0.00 0.00 0.00 82 1013.5
20240617031903 62 25 0.0 0.0 0.00 0.00 0.00 82 1013.5
20240617031403 62 26 0.0 0.0 0.00 0.00 0.00 82 1013.3
20240617030903 62 26 0.0 1.0 0.00 0.00 0.00 81 1013.2
20240617030403 62 26 0.0 1.0 0.00 0.00 0.00 80 1013.2
20240617025404 62 32 0.0 0.0 0.00 0.00 0.00 83 1013.2
20240617024904 62 30 0.0 0.0 0.00 0.00 0.00 83 1013.2
20240617024404 61 31 0.0 0.0 0.00 0.00 0.00 83 1013.2
20240617023904 61 31 0.0 1.0 0.00 0.00 0.00 83 1013.2
20240617023403 62 29 0.0 1.0 0.00 0.00 0.00 83 1013.2
20240617022904 62 30 0.0 1.0 0.00 0.00 0.00 82 1013.2
20240617022404 62 23 0.0 0.0 0.00 0.00 0.00 82 1013.1
20240617021903 62 23 0.0 0.0 0.00 0.00 0.00 83 1013.0
20240617020904 62 23 0.0 0.0 0.00 0.00 0.00 82 1012.9
20240617020403 62 23 0.0 0.0 0.00 0.00 0.00 81 1013.1
20240617015903 62 24 0.0 0.0 0.00 0.00 0.00 82 1012.9
20240617015403 62 24 0.0 0.0 0.00 0.00 0.00 82 1013.2
20240617014904 62 24 0.0 0.0 0.00 0.00 0.00 82 1013.2
20240617014403 62 24 0.0 0.0 0.00 0.00 0.00 82 1013.0
20240617013903 62 24 0.0 0.0 0.00 0.00 0.00 82 1012.9
20240617012903 62 24 0.0 0.0 0.00 0.00 0.00 81 1013.2
20240617012404 62 24 0.0 0.0 0.00 0.00 0.00 82 1013.1
20240617011903 62 24 0.0 0.0 0.00 0.00 0.00 82 1013.1
20240617011403 62 24 0.0 0.0 0.00 0.00 0.00 82 1013.0
20240617010405 62 24 0.0 0.0 0.00 0.00 0.00 82 1013.1
20240617005903 62 24 0.0 0.0 0.00 0.00 0.00 81 1012.9
20240617005405 63 24 0.0 0.0 0.00 0.00 0.00 80 1012.9
20240617004904 62 24 0.0 0.0 0.00 0.00 0.00 81 1012.9
20240617004404 62 24 0.0 0.0 0.00 0.00 0.00 81 1013.0
20240617003403 63 24 0.0 1.0 0.00 0.00 0.00 81 1012.9
20240617001903 63 24 0.0 0.0 0.00 0.00 0.00 81 1012.9
20240617001404 63 24 0.0 1.0 0.00 0.00 0.00 81 1012.9
20240617000903 63 24 0.0 1.0 0.00 0.00 0.00 81 1012.9
20240617000405 63 23 0.0 1.0 0.00 0.00 0.00 79 1012.9
20240616235904 63 23 0.0 0.0 0.00 0.00 0.00 80 1012.9
20240616235403 63 24 0.0 0.0 0.00 0.00 0.00 80 1012.9
20240616234903 63 24 0.0 0.0 0.00 0.00 0.00 80 1012.9
20240616233904 64 21 0.0 1.0 0.00 0.00 0.00 79 1012.7
20240616233404 64 21 0.0 1.0 0.00 0.00 0.00 79 1012.5
20240616232903 64 21 0.0 0.0 0.00 0.00 0.00 79 1012.7
20240616232405 64 21 0.0 0.0 0.00 0.00 0.00 79 1012.7
20240616231903 64 21 0.0 0.0 0.00 0.00 0.00 80 1012.5
20240616231403 64 21 0.0 0.0 0.00 0.00 0.00 80 1012.8
20240616230904 64 21 0.0 0.0 0.00 0.00 0.00 79 1012.8
20240616230404 64 21 0.0 1.0 0.00 0.00 0.00 79 1012.8
20240616225904 64 21 0.0 1.0 0.00 0.00 0.00 79 1012.5
20240616225404 64 21 0.0 0.0 0.00 0.00 0.00 79 1012.5
20240616224903 64 21 0.0 0.0 0.00 0.00 0.00 79 1012.6
20240616224404 64 21 0.0 0.0 0.00 0.00 0.00 78 1012.5
20240616223904 64 21 0.0 0.0 0.00 0.00 0.00 80 1012.5
20240616223407 65 21 0.0 0.0 0.00 0.01 0.00 79 1012.5
20240616222905 65 21 0.0 0.0 0.00 0.04 0.00 78 1012.5
20240616222403 65 21 0.0 0.0 0.00 0.08 0.00 79 1012.5
20240616221905 65 21 0.0 0.0 0.00 0.09 0.00 79 1012.4
20240616221403 65 21 0.0 0.0 0.00 0.12 0.00 77 1012.2
20240616220904 65 21 0.0 0.0 0.00 0.13 0.00 79 1012.2
20240616220404 65 21 0.0 0.0 0.00 0.13 0.00 78 1012.2
20240616214904 65 20 0.0 0.0 0.00 0.13 0.13 77 1012.2
20240616214404 65 20 0.0 0.0 0.00 0.13 0.13 77 1012.2
20240616213904 65 21 0.0 0.0 0.00 0.13 0.13 77 1012.0
20240616213403 66 21 0.0 1.0 0.00 0.13 0.13 78 1011.9
20240616212904 66 19 0.0 1.0 0.00 0.13 0.13 76 1012.0
20240616211906 66 15 0.0 0.0 0.00 0.13 0.13 77 1012.1
20240616211404 66 15 0.0 0.0 0.00 0.13 0.13 76 1011.9
20240616210904 66 15 0.0 1.0 0.00 0.13 0.13 76 1011.9
20240616205904 67 13 0.0 1.0 0.00 0.13 0.13 75 1011.9
20240616205404 66 13 0.0 1.0 0.00 0.13 0.13 74 1011.9
20240616204405 67 13 0.0 0.0 0.00 0.13 0.13 75 1011.5
20240616203905 67 13 0.0 0.0 0.00 0.13 0.13 76 1011.9
20240616203405 67 13 0.0 0.0 0.00 0.13 0.13 74 1011.5
20240616202904 67 13 0.0 0.0 0.00 0.13 0.13 75 1011.5
20240616202405 67 12 0.0 0.0 0.00 0.13 0.13 73 1011.5
20240616201906 67 10 0.0 0.0 0.00 0.13 0.13 73 1011.5
20240616201403 68 10 0.0 0.0 0.00 0.13 0.13 74 1011.4
20240616195903 68 10 0.0 0.0 0.00 0.13 0.13 72 1011.2
20240616195403 68 9 0.0 0.0 0.00 0.13 0.13 72 1011.2
20240616194904 68 8 0.0 1.0 0.00 0.13 0.13 72 1010.9
20240616194403 68 8 0.0 1.0 0.00 0.13 0.13 71 1010.8
20240616193404 69 290 0.0 1.0 0.00 0.13 0.13 72 1010.5
20240616192904 69 290 0.0 1.0 0.00 0.13 0.13 72 1010.3
20240616192403 69 272 0.0 0.0 0.00 0.13 0.13 72 1010.5
20240616191903 69 270 0.0 0.0 0.00 0.13 0.13 71 1010.2
20240616191404 69 268 0.0 0.0 0.00 0.13 0.13 70 1010.1
20240616190904 70 268 0.0 0.0 0.00 0.13 0.13 70 1010.2
20240616190404 70 267 0.0 0.0 0.00 0.13 0.13 70 1009.9
20240616185904 70 267 0.0 0.0 0.00 0.13 0.13 70 1010.1
20240616185404 70 267 0.0 0.0 0.00 0.13 0.13 69 1010.2
20240616184903 70 264 0.0 0.0 0.00 0.13 0.13 70 1009.8
20240616184404 71 263 0.0 0.0 0.00 0.13 0.13 70 1009.8
20240616182904 71 43 0.0 1.0 0.00 0.13 0.13 68 1009.8
20240616182404 71 110 0.0 1.0 0.00 0.13 0.13 67 1009.8
20240616181903 72 95 0.0 1.0 0.00 0.13 0.13 67 1009.5
20240616181403 72 112 0.0 0.0 0.00 0.13 0.13 68 1009.5
20240616180904 72 112 0.0 0.0 0.00 0.13 0.13 68 1009.5
20240616180404 72 112 0.0 0.0 0.00 0.13 0.13 65 1009.5
20240616175904 73 112 0.0 0.0 0.00 0.13 0.13 65 1009.4
20240616174903 73 115 0.0 0.0 0.00 0.13 0.13 62 1009.1
20240616174407 74 113 0.0 1.0 0.00 0.13 0.13 62 1009.2
20240616173903 74 114 0.0 1.0 0.00 0.13 0.13 63 1009.1
20240616172904 75 157 0.0 1.0 0.00 0.13 0.13 57 1009.1
20240616172404 75 152 0.0 1.0 0.00 0.13 0.13 58 1009.1
20240616171904 75 49 0.0 1.0 0.00 0.13 0.13 57 1009.1
20240616171403 75 136 0.0 2.0 0.00 0.13 0.13 57 1009.0
20240616170904 75 80 0.0 2.0 0.00 0.13 0.13 59 1009.1
20240616170405 75 51 0.0 2.0 0.00 0.13 0.13 58 1009.0
20240616165403 76 185 0.0 1.0 0.00 0.13 0.13 52 1008.8
20240616164404 76 80 0.0 2.0 0.00 0.13 0.13 55 1009.1
20240616163905 76 307 0.0 2.0 0.00 0.13 0.13 54 1008.8
20240616163404 76 125 0.0 1.0 0.00 0.13 0.13 56 1009.0
20240616162905 77 71 0.0 2.0 0.00 0.13 0.13 52 1008.8
20240616162405 77 90 0.0 2.0 0.00 0.13 0.13 57 1008.8
20240616161903 77 69 1.0 1.0 0.00 0.13 0.13 56 1008.9
20240616161403 77 159 0.0 1.0 0.00 0.13 0.13 50 1008.8
20240616160903 78 76 0.0 2.0 0.00 0.13 0.13 51 1008.8
20240616160405 78 53 0.0 2.0 0.00 0.13 0.13 51 1008.9
20240616155904 79 63 1.0 2.0 0.00 0.13 0.13 52 1008.8
20240616155404 78 74 0.0 1.0 0.00 0.13 0.13 51 1008.8
20240616154903 78 69 0.0 1.0 0.00 0.13 0.13 50 1008.8
20240616154404 78 147 0.0 1.0 0.00 0.13 0.13 52 1009.1
20240616153904 77 99 0.0 1.0 0.00 0.13 0.13 53 1008.8
20240616152903 78 46 0.0 2.0 0.00 0.13 0.13 50 1009.0
20240616152404 79 56 0.0 2.0 0.00 0.13 0.13 49 1008.8
20240616151904 79 86 0.0 1.0 0.00 0.13 0.13 50 1008.8
20240616151404 78 184 0.0 2.0 0.00 0.13 0.13 52 1008.8
20240616150903 79 88 0.0 2.0 0.00 0.13 0.13 51 1008.8
20240616150404 80 73 0.0 2.0 0.00 0.13 0.13 49 1008.8
20240616145904 80 95 0.0 2.0 0.00 0.13 0.13 50 1009.1
20240616145404 80 93 1.0 1.0 0.00 0.13 0.13 50 1008.9
20240616144904 80 52 0.0 3.0 0.00 0.13 0.13 50 1008.5
20240616144404 81 148 1.0 3.0 0.00 0.13 0.13 50 1008.8
20240616143403 81 74 0.0 3.0 0.00 0.13 0.13 48 1008.8
20240616142903 81 42 1.0 3.0 0.00 0.13 0.13 46 1008.8
20240616141903 82 44 1.0 3.0 0.00 0.13 0.13 43 1009.0
20240616141404 81 44 1.0 3.0 0.00 0.13 0.13 44 1009.1
20240616140903 82 78 1.0 3.0 0.00 0.13 0.13 45 1008.9
20240616140405 82 83 2.0 3.0 0.00 0.13 0.13 44 1008.9
20240616135905 83 71 1.0 3.0 0.00 0.13 0.13 42 1009.1
20240616135403 82 35 1.0 3.0 0.00 0.13 0.13 43 1009.1
20240616134903 82 48 1.0 3.0 0.00 0.13 0.13 42 1009.1
20240616134404 82 64 1.0 3.0 0.00 0.13 0.13 44 1009.1
20240616133904 82 48 2.0 5.0 0.00 0.13 0.13 43 1009.1
20240616133404 82 29 1.0 5.0 0.00 0.13 0.13 43 1008.9
20240616132403 82 71 1.0 3.0 0.00 0.13 0.13 42 1009.0
20240616131905 82 70 1.0 3.0 0.00 0.13 0.13 43 1009.0
20240616130904 82 61 1.0 7.0 0.00 0.13 0.13 44 1009.1
20240616130403 81 33 1.0 7.0 0.00 0.13 0.13 43 1009.1
20240616125905 81 24 2.0 5.0 0.00 0.13 0.13 43 1009.1
20240616125403 81 42 2.0 5.0 0.00 0.13 0.13 45 1009.1
20240616123405 80 83 0.0 3.0 0.00 0.13 0.13 50 1009.1
20240616122404 79 79 1.0 3.0 0.00 0.13 0.13 53 1009.1
20240616121904 80 151 2.0 5.0 0.00 0.13 0.13 52 1009.1
20240616121405 82 48 1.0 5.0 0.00 0.13 0.13 50 1009.1
20240616120903 81 73 1.0 5.0 0.00 0.13 0.13 49 1009.1
20240616120404 81 115 2.0 5.0 0.00 0.13 0.13 52 1009.1
20240616115903 81 40 2.0 5.0 0.00 0.13 0.13 50 1009.1
20240616115404 81 57 2.0 5.0 0.00 0.13 0.13 52 1009.1
20240616114903 80 38 1.0 3.0 0.00 0.13 0.13 53 1009.4
20240616114404 78 57 1.0 3.0 0.00 0.13 0.13 54 1009.1
20240616113404 79 124 1.0 5.0 0.00 0.13 0.13 55 1009.1
20240616112406 80 65 1.0 5.0 0.00 0.13 0.13 54 1009.1
20240616111904 80 70 0.0 2.0 0.00 0.13 0.13 55 1009.1
20240616111403 81 61 1.0 2.0 0.00 0.13 0.13 54 1009.5
20240616110905 79 83 1.0 3.0 0.00 0.13 0.13 54 1009.1
20240616110405 79 57 1.0 5.0 0.00 0.13 0.13 55 1009.5
20240616105904 79 40 2.0 5.0 0.00 0.13 0.13 54 1009.5
20240616104904 79 190 0.0 2.0 0.00 0.13 0.13 54 1009.1
20240616104404 79 123 1.0 2.0 0.00 0.13 0.13 57 1009.5
20240616103905 79 63 1.0 5.0 0.00 0.13 0.13 57 1009.8
20240616103403 78 64 1.0 5.0 0.00 0.13 0.13 57 1009.5
20240616102905 78 43 2.0 3.0 0.00 0.13 0.13 58 1009.5
20240616102406 78 31 1.0 2.0 0.00 0.13 0.13 57 1009.8
20240616101904 78 79 0.0 2.0 0.00 0.13 0.13 58 1009.8
20240616101404 78 237 1.0 3.0 0.00 0.13 0.13 57 1009.8
20240616100905 78 96 1.0 3.0 0.00 0.13 0.13 56 1009.8
20240616100404 77 34 1.0 3.0 0.00 0.13 0.13 57 1009.8
20240616095904 78 49 1.0 3.0 0.00 0.13 0.13 56 1009.8
20240616095404 79 202 0.0 2.0 0.00 0.13 0.13 55 1009.8
20240616094904 80 7 0.0 2.0 0.00 0.13 0.13 53 1009.8
20240616094404 80 123 0.0 2.0 0.00 0.13 0.13 53 1009.8
20240616093906 80 8 1.0 2.0 0.00 0.13 0.13 52 1009.5
20240616093404 80 236 0.0 2.0 0.00 0.13 0.13 53 1009.8
20240616092904 80 346 0.0 2.0 0.00 0.13 0.13 51 1009.5
20240616092404 79 221 0.0 1.0 0.00 0.13 0.13 53 1009.5
20240616091404 79 11 0.0 1.0 0.00 0.13 0.13 53 1009.5
20240616090903 78 171 0.0 1.0 0.00 0.13 0.13 54 1009.5
20240616090403 78 218 0.0 3.0 0.00 0.13 0.13 56 1009.7
20240616085903 77 14 0.0 3.0 0.00 0.13 0.13 58 1009.5
20240616085404 77 20 0.0 1.0 0.00 0.13 0.13 58 1009.5
20240616084404 75 238 0.0 1.0 0.00 0.13 0.13 61 1009.8
20240616083904 74 10 0.0 1.0 0.00 0.13 0.13 61 1009.5
20240616083404 75 355 0.0 2.0 0.00 0.13 0.13 61 1009.8
20240616082403 76 307 0.0 2.0 0.00 0.13 0.13 59 1010.2
20240616081903 75 289 0.0 1.0 0.00 0.13 0.13 58 1009.8
20240616080905 74 85 0.0 2.0 0.00 0.13 0.13 61 1009.8
20240616080403 75 252 0.0 2.0 0.00 0.13 0.13 61 1009.9
20240616075904 75 19 1.0 2.0 0.00 0.13 0.13 60 1009.8
20240616075403 74 331 1.0 2.0 0.00 0.13 0.13 61 1009.8
20240616074903 74 239 1.0 2.0 0.00 0.13 0.13 63 1009.8
20240616074404 73 101 0.0 2.0 0.00 0.13 0.13 64 1009.8
20240616071904 71 254 0.0 3.0 0.00 0.13 0.13 68 1010.0
20240616071404 71 249 1.0 5.0 0.00 0.13 0.13 70 1010.0
20240616070905 71 57 1.0 5.0 0.00 0.13 0.13 69 1010.2
20240616070404 71 352 1.0 5.0 0.00 0.13 0.13 70 1009.8
20240616065905 71 225 1.0 2.0 0.00 0.13 0.13 70 1010.0
20240616064404 70 26 1.0 2.0 0.00 0.13 0.13 72 1010.2